(142754) Brunner = 1998 SX91 = 2002 TR317 = 2004 DR17

Discovered at Apache Point on 2002-10-05 by Sloan Digital Sky Survey.
(142754) Brunner = 2002 TR317

Robert Brunner (b. 1968) is an American astrophysicist and a contributor to the Sloan Digital Sky Survey. He is best known for his work on galaxy formation and evolution, and quasar variability. [Ref: Minor Planet Circ. 79105]

Orbit

Orbit type: Main Belt

Note: WebGL enabled browser required.

epoch2024-03-31.0
epoch JD2460400.5
perihelion date2023-11-23.19471
perihelion JD2460271.69471
argument of perihelion (°)196.34313
ascending node (°)216.53561
inclination (°)6.57063
eccentricity0.1715419
perihelion distance (AU)2.1324096
Tisserand w.r.t. Jupiter3.4
ΔV w.r.t. Earth (km/sec)9.4
semimajor axis (AU)2.5739499
mean anomaly (°)30.74237
mean daily motion (°/day)0.23867320
aphelion distance (AU)3.015
period (years)4.13
P-vector [x]0.60460427
P-vector [y]0.74300892
P-vector [z]0.28703906
Q-vector [x]-0.79360767
Q-vector [y]0.59273520
Q-vector [z]0.13730202
absolute magnitude16.6
phase slope0.15
uncertainty0
referenceMPEC 2024-C115
observations used360
oppositions17
arc length (days)10699
first opposition used1994
last opposition used2024
residual rms (arc-secs)0.74
perturbers coarse indicatorM-v
perturbers precise indicator003Ek
first observation date used1994-10-26.0
last observation date used2024-02-10.0
computer nameMPCLINUX
JD of orbit computation2456877.889439
perihelion JD uncertainty (days)1.3058E-04
argument of perihelion uncertainty (°)5.6452E-05
ascending node uncertainty (°)4.9705E-05
inclination uncertainty (°)4.8563E-06
eccentricity uncertainty 4.0874E-08
perihelion distance uncertainty (AU)1.0585E-07
Minimum Orbit Intersection Distances (in AU)
for orbit epoch: 2460200.5, reference: E2024-CB5
Mercury1.81797
Venus1.41007
Earth1.14317
Mars0.63929
Jupiter2.35024
Saturn6.7467
Uranus15.6451
Neptune27.5651

Observations

365 total observations over interval: 1994 10 26.35874 – 2024 02 10.276280
These data are available for download (format description).

Date (UT) J2000 RA J2000 Dec Magn Location Ref
1994 10 26.35874 02 09 31.07 +13 44 23.6   691 – Steward Observatory, Kitt Peak-Spacewatch MPS 149461
1994 10 26.38094 02 09 29.91 +13 44 12.1 18.3 V 691 – Steward Observatory, Kitt Peak-Spacewatch MPS 149461
1994 10 26.40304 02 09 28.80 +13 44 00.4   691 – Steward Observatory, Kitt Peak-Spacewatch MPS 149462
1998 09 26.20775 00 42 03.49 +10 31 13.2 19.4   704 – Lincoln Laboratory ETS, New Mexico MPS 2752
1998 09 26.22446 00 42 02.71 +10 31 04.3 19.8   704 – Lincoln Laboratory ETS, New Mexico MPS 2752
1998 09 26.24111 00 42 01.94 +10 30 55.6 19.8   704 – Lincoln Laboratory ETS, New Mexico MPS 2752
1998 09 26.25779 00 42 01.11 +10 30 49.6 19.1   704 – Lincoln Laboratory ETS, New Mexico MPS 2752
1998 09 26.27446 00 42 00.39 +10 30 42.1 19.1   704 – Lincoln Laboratory ETS, New Mexico MPS 2752
1998 09 27.29544 00 41 14.65 +10 22 48.5 19.3   704 – Lincoln Laboratory ETS, New Mexico MPS 2752
1998 09 27.31295 00 41 13.79 +10 22 40.4 19.4   704 – Lincoln Laboratory ETS, New Mexico MPS 2752
1998 09 27.33094 00 41 13.07 +10 22 31.5 19.4   704 – Lincoln Laboratory ETS, New Mexico MPS 2752
1998 09 27.34836 00 41 12.17 +10 22 22.6 19.4   704 – Lincoln Laboratory ETS, New Mexico MPS 2752
2001 05 24.21784 16 33 00.32 -16 52 41.4 20.0 R 807 – Cerro Tololo Observatory, La Serena MPS 149462
2001 05 24.28101 16 32 56.76 -16 52 26.9   807 – Cerro Tololo Observatory, La Serena MPS 149462
2001 06 16.23806 16 12 29.85 -15 33 49.9 21.7 V 691 – Steward Observatory, Kitt Peak-Spacewatch MPS 149462
2001 06 16.25993 16 12 28.78 -15 33 46.0 21.4 V 691 – Steward Observatory, Kitt Peak-Spacewatch MPS 149462
2001 06 16.28172 16 12 27.70 -15 33 42.6 21.3 V 691 – Steward Observatory, Kitt Peak-Spacewatch MPS 149462
2002 08 28.34635 23 24 15.66 +05 35 56.5 19.5   644 – Palomar Mountain/NEAT MPS 149462
2002 08 28.37954 23 24 14.25 +05 35 47.0 19.8   644 – Palomar Mountain/NEAT MPS 149462
2002 08 28.40202 23 24 13.27 +05 35 40.3 19.3   644 – Palomar Mountain/NEAT MPS 149462
2002 09 05.34079 23 18 24.00 +04 50 53.0 18.6 R 699 – Lowell Observatory-LONEOS MPS 149462
2002 09 05.35482 23 18 23.30 +04 50 46.5   699 – Lowell Observatory-LONEOS MPS 149462
2002 09 05.36886 23 18 22.65 +04 50 41.7   699 – Lowell Observatory-LONEOS MPS 149462
2002 09 05.38289 23 18 21.94 +04 50 36.1   699 – Lowell Observatory-LONEOS MPS 149462
2002 09 13.39596 23 11 57.71 +03 54 12.2 19.0   644 – Palomar Mountain/NEAT MPS 149462
2002 09 13.40642 23 11 57.19 +03 54 07.6 19.0   644 – Palomar Mountain/NEAT MPS 149462
2002 09 13.41709 23 11 56.64 +03 54 02.7 19.0   644 – Palomar Mountain/NEAT MPS 149462
2002 10 04.18307 22 57 10.37 +01 06 38.9 19.6   704 – Lincoln Laboratory ETS, New Mexico MPS 125671
2002 10 04.19876 22 57 09.92 +01 06 30.4 20.0   704 – Lincoln Laboratory ETS, New Mexico MPS 125671
2002 10 04.21456 22 57 09.34 +01 06 23.8 20.2   704 – Lincoln Laboratory ETS, New Mexico MPS 125671
2002 10 04.23019 22 57 08.74 +01 06 16.6 19.6   704 – Lincoln Laboratory ETS, New Mexico MPS 125671
2002 10 04.24578 22 57 08.25 +01 06 07.8 20.2   704 – Lincoln Laboratory ETS, New Mexico MPS 125671
2002 10 05.26560 22 56 35.853 +00 58 09.32 20.46 V 645 – Apache Point-Sloan Digital Sky Survey MPS 83052
2002 10 05.265600 22 56 35.852 +00 58 09.32 20.46 V 645 – Apache Point-Sloan Digital Sky Survey MPS 83052
2002 10 05.269072 22 56 35.740 +00 58 07.65 21.25   645 – Apache Point-Sloan Digital Sky Survey MPS 83052
2002 10 10.259940 22 54 19.669 +00 20 34.80 19.82 V 645 – Apache Point-Sloan Digital Sky Survey MPS 83052
2002 10 10.263412 22 54 19.589 +00 20 33.34 20.65   645 – Apache Point-Sloan Digital Sky Survey MPS 83052
2004 02 18.34176 10 00 49.05 +01 46 58.2 21.1 V 691 – Steward Observatory, Kitt Peak-Spacewatch MPS 100251
2004 02 18.37252 10 00 47.34 +01 47 09.5 20.9 V 691 – Steward Observatory, Kitt Peak-Spacewatch MPS 100251
2004 02 18.40008 10 00 45.78 +01 47 19.7 20.7 V 691 – Steward Observatory, Kitt Peak-Spacewatch MPS 100251
2004 02 19.30118 09 59 57.38 +01 52 55.4 20.0   704 – Lincoln Laboratory ETS, New Mexico MPS 100251
2004 02 19.33142 09 59 55.72 +01 53 04.7 20.1   704 – Lincoln Laboratory ETS, New Mexico MPS 100251
2004 02 19.34496 09 59 54.98 +01 53 11.4 20.4   704 – Lincoln Laboratory ETS, New Mexico MPS 100251
2004 02 19.35697 09 59 54.31 +01 53 14.5 20.4   704 – Lincoln Laboratory ETS, New Mexico MPS 100251
2006 08 27.16480 21 57 24.50 -01 43 13.5 19.1 R 699 – Lowell Observatory-LONEOS MPS 176967
2006 08 27.18296 21 57 23.60 -01 43 21.9   699 – Lowell Observatory-LONEOS MPS 176967
2006 08 27.20112 21 57 22.61 -01 43 27.7   699 – Lowell Observatory-LONEOS MPS 176967
2006 08 27.21925 21 57 21.66 -01 43 36.6   699 – Lowell Observatory-LONEOS MPS 176967
2006 10 01.11411 21 36 47.96 -05 28 25.3   691 – Steward Observatory, Kitt Peak-Spacewatch MPS 182561
2006 10 01.13260 21 36 47.73 -05 28 31.5   691 – Steward Observatory, Kitt Peak-Spacewatch MPS 182561
2006 10 01.15116 21 36 47.49 -05 28 37.2   691 – Steward Observatory, Kitt Peak-Spacewatch MPS 182561
2008 02 07.26231 08 55 56.49 +06 05 13.3 19.8 V 703 – Catalina Sky Survey MPS 237233
2008 02 07.26889 08 55 56.10 +06 05 16.3 19.6 V 703 – Catalina Sky Survey MPS 237233
2008 02 07.27548 08 55 55.66 +06 05 17.8 19.7 V 703 – Catalina Sky Survey MPS 237233
2008 02 07.28206 08 55 55.30 +06 05 19.6 19.4 V 703 – Catalina Sky Survey MPS 237233
2008 02 14.22566 08 49 45.12 +06 42 32.4 19.6 V 703 – Catalina Sky Survey MPS 238998
2008 02 14.23222 08 49 44.76 +06 42 36.0 20.5 V 703 – Catalina Sky Survey MPS 238998
2008 02 14.23875 08 49 44.43 +06 42 37.1 19.7 V 703 – Catalina Sky Survey MPS 238998
2008 02 14.24531 08 49 44.07 +06 42 40.0 19.3 V 703 – Catalina Sky Survey MPS 238998
2008 03 01.27550 08 38 46.73 +08 12 24.4 20.1 C 704 – Lincoln Laboratory ETS, New Mexico MPS 288526
2008 03 01.28717 08 38 46.42 +08 12 27.8 20.2 C 704 – Lincoln Laboratory ETS, New Mexico MPS 288526
2008 03 01.29864 08 38 46.00 +08 12 32.6 19.8 C 704 – Lincoln Laboratory ETS, New Mexico MPS 288526
2008 03 01.31020 08 38 45.66 +08 12 35.9 19.8 C 704 – Lincoln Laboratory ETS, New Mexico MPS 288526
2008 03 08.20594 08 36 01.36 +08 48 24.9 19.6 V 703 – Catalina Sky Survey MPS 243356
2008 03 08.21292 08 36 01.22 +08 48 27.7 20.9 V 703 – Catalina Sky Survey MPS 243356
2008 03 08.21992 08 36 00.86 +08 48 29.7 21.1 V 703 – Catalina Sky Survey MPS 243356
2008 03 08.22692 08 36 00.79 +08 48 32.2 21.0 V 703 – Catalina Sky Survey MPS 243356
2010 08 06.500081 20 59 48.213 -05 53 52.48 21.08 g F51 – Pan-STARRS 1, Haleakala MPS 364829
2010 08 06.511240 20 59 47.593 -05 53 55.35 21.09 g F51 – Pan-STARRS 1, Haleakala MPS 364829
2010 08 13.28716 20 53 44.41 -06 23 14.4 19.5   704 – Lincoln Laboratory ETS, New Mexico MPS 345961
2010 08 13.29957 20 53 43.71 -06 23 17.7 19.8   704 – Lincoln Laboratory ETS, New Mexico MPS 345961
2010 08 13.31197 20 53 43.10 -06 23 20.5 20.2   704 – Lincoln Laboratory ETS, New Mexico MPS 345961
2010 09 14.15024 20 33 32.54 -09 05 14.3 19.8 V G96 – Mt. Lemmon Survey MPS 349113
2010 09 14.15722 20 33 32.47 -09 05 15.6 19.8 V G96 – Mt. Lemmon Survey MPS 349113
2010 09 14.16417 20 33 32.36 -09 05 17.1 19.8 V G96 – Mt. Lemmon Survey MPS 349113
2010 10 29.13988 20 49 41.66 -10 54 03.3 19.9 V G96 – Mt. Lemmon Survey MPS 354902
2010 10 29.14527 20 49 41.95 -10 54 03.7 20.7 V G96 – Mt. Lemmon Survey MPS 354902
2010 10 29.15068 20 49 42.27 -10 54 03.5 21.3 V G96 – Mt. Lemmon Survey MPS 354902
2010 10 29.15616 20 49 42.63 -10 54 03.1 20.5 V G96 – Mt. Lemmon Survey MPS 354902
2012 01 02.29962 08 03 49.68 +09 22 29.1 20.3 V G96 – Mt. Lemmon Survey MPS 406767
2012 01 02.30702 08 03 49.28 +09 22 29.1 20.4 V G96 – Mt. Lemmon Survey MPS 406767
2012 01 02.31454 08 03 48.85 +09 22 29.3 20.2 V G96 – Mt. Lemmon Survey MPS 406767
2012 01 02.32201 08 03 48.45 +09 22 29.3 20.2 V G96 – Mt. Lemmon Survey MPS 406767
2012 02 11.26145 07 29 04.903 +11 08 34.48 20.5 g F51 – Pan-STARRS 1, Haleakala MPS 412578
